Regional Weather Roundup
Issued by NWS Midland/Odessa, TX

Skip options and go directly to product.
Home | Oldest Version | Next Version | Current Version | All | Text Only | Save Text | Print | Product List | Glossary On

Skip product version selection by date and time.   
587
ASUS44 KMAF 221002
RWRMAF
MIDLAND AREA WEATHER ROUNDUP
NATIONAL WEATHER SERVICE MIDLAND TX
500 AM CDT TUE APR 22 2014

...IN SOUTHWEST TEXAS AND SOUTHEAST NEW MEXICO...

CITY           SKY/WX    TMP DP  RH WIND       PRES   REMARKS
ALPINE         CLEAR     53  41  63 CALM      30.19S
ANDREWS        FAIR      58  52  79 SE3       30.14S
ARTESIA        CLEAR     63  48  59 S8        30.15S
BIG SPRING     CLEAR     59  50  74 E5        30.13F
CARLSBAD       CLEAR     61  48  62 S7        30.13S
DRYDEN           N/A     68  61  78 NE5       30.05F
FORT STOCKTON  CLEAR     64  58  80 E9        30.10R
GUAD PASS      CLEAR     58  46  64 NE36G44   30.18F
HOBBS          CLEAR     54  50  87 CALM      30.17R
MARFA          CLEAR     52  34  50 N10       30.17F
MIDLAND AIRPK  CLEAR     64  53  66 SE8       30.13S
MIDLAND INTL   CLEAR     63  53  70 E9        30.11S
ODESSA         CLEAR     64  53  67 E12       30.12S
PECOS          CLEAR     64  51  61 E5        30.09S
PRESIDIO       FAIR      71  48  43 N9        30.02S
SEMINOLE       CLEAR     57  51  79 SE5       30.15F
SNYDER         CLEAR     59  53  81 NE3       30.12S
WINK           CLEAR     66  52  60 E12       30.08S
$$
...OTHER STATIONS IN TEXAS...

CITY           SKY/WX    TMP DP  RH WIND       PRES   REMARKS
ABILENE        CLEAR     60  54  80 CALM      30.08R
AMARILLO       PTCLDY    52  44  74 SE8       30.16R
AUSTIN         PTCLDY    66  60  81 NW6       29.97S
BROWNSVILLE    CLOUDY    69  68  96 CALM      29.95R
CORPUS CHRISTI CLOUDY    70  67  90 CALM      29.99R
DALLAS FTW     CLEAR     62  59  90 NW6       30.01R
DEL RIO        CLEAR     65  62  90 W5        29.99S
EL PASO        FAIR      66  38  35 N8        30.08R
HOUSTON INT    CLOUDY    68  65  90 W12       29.97S
LUBBOCK        CLEAR     53  48  83 E3        30.14S
SAN ANGELO     CLEAR     60  54  80 CALM      30.07S
SAN ANTONIO    PTCLDY    65  62  90 N5        29.99R
WACO           FOG       60  59  96 NW3       29.99S VSB 1/2
WICHITA FALLS  NOT AVBL
$$
...OTHER LOCATIONS IN NEW MEXICO...

CITY           SKY/WX    TMP DP  RH WIND       PRES   REMARKS
ALAMAGORDO     CLEAR     57  36  44 NW9       30.09R
ALBUQUERQUE    MOCLDY    63  36  36 E10       30.16S
CANNON AFB     CLEAR     52  45  76 E6        30.19S
CLOVIS         CLEAR     50  41  71 CALM      30.21S
HOLLOMAN AFB   PTCLDY    58  36  44 NW5       30.08S
ROSWELL        CLEAR     57  43  59 SW8       30.16R
RUIDOSO        PTCLDY    48  34  57 E5        30.31S
SANTA FE       MOCLDY    55  37  50 SE12      30.22F
TRUTH OR CONSE FAIR      55  36  48 NW8       30.10F
TUCUMCARI      CLEAR     54  41  61 SW6       30.16F
$$

USA.gov is the U.S. government's official web portal to all federal, state and local government web resources and services.